Weather History for Socorro, NM

Change the Weather History Date:

Tuesday, May 14, 2013

  Actual Average Record
Temperature  
Mean Temperature 69 °F -  
Max Temperature 87 °F 83 °F 87 °F (2013)
Min Temperature 51 °F 44 °F 36 °F (2014)
Cooling Degree Days 4    
Growing Degree Days 19 (Base 50)    
Moisture  
Dew Point 25 °F    
Average Humidity 20    
Maximum Humidity 32    
Minimum Humidity 10    
Precipitation  
Precipitation 0.00 in - - ()
Sea Level Pressure  
Sea Level Pressure 30.09 in    
Wind  
Wind Speed 11 mph (SSE)    
Max Wind Speed 26 mph    
Max Gust Speed 33 mph    
Visibility 10 miles    
Events      
Averages and records for this station are not official NWS values.
T = Trace of Precipitation, MM = Missing Value Source: NWS Daily Summary

Daily Weather History Graph

Daily Weather History Graph

Search for Another Location

Airport:

Trip Planner

Search our weather history database for the weather conditions in past years. The results will help you decide how hot, cold, wet, or windy it might be!

Date:

Astronomy

May. 14, 2013 Rise Set
Actual Time 6:06 AM MDT 8:01 PM MDT
Civil Twilight 5:39 AM MDT 8:29 PM MDT
Nautical Twilight 5:05 AM MDT 9:02 PM MDT
Astronomical Twilight 4:29 AM MDT 9:38 PM MDT
Moon 9:48 AM MDT (5/14) 11:52 PM MDT (5/14)
Length of Visible Light 14h 50m
Length of Day
13h 55m
Waxing Crescent, 19% of the Moon is Illuminated
May 14
Waxing Crescent
May 17
First Quarter
May 24
Full
May 31
Last Quarter
Jun 8
New

Hourly Weather History & Observations

Time (MDT) Temp. Dew Point Humidity Pressure Visibility Wind Dir Wind Speed Gust Speed Precip Events Conditions
12:15 AM 61.2 °F 27.3 °F 28% 30.18 in 10.0 mi SSE 9.2 mph - N/A   Clear
12:35 AM 61.3 °F 24.8 °F 25% 30.17 in 10.0 mi SSE 8.1 mph - N/A   Clear
12:55 AM 60.3 °F 25.3 °F 26% 30.17 in 10.0 mi SSE 10.4 mph - N/A   Clear
1:15 AM 59.5 °F 24.3 °F 26% 30.17 in 10.0 mi SSE 10.4 mph - N/A   Clear
1:35 AM 59.2 °F 22.5 °F 24% 30.17 in 10.0 mi South 9.2 mph - N/A   Clear
1:55 AM 58.6 °F 21.6 °F 24% 30.16 in 10.0 mi South 8.1 mph - N/A   Clear
2:15 AM 57.7 °F 21.2 °F 24% 30.16 in 10.0 mi South 9.2 mph - N/A   Clear
2:35 AM 57.4 °F 19.0 °F 22% 30.16 in 10.0 mi South 8.1 mph - N/A   Clear
2:55 AM 57.0 °F 19.2 °F 23% 30.15 in 10.0 mi South 8.1 mph - N/A   Clear
3:15 AM 56.7 °F 19.2 °F 23% 30.15 in 10.0 mi South 9.2 mph - N/A   Clear
3:35 AM 56.3 °F 19.2 °F 24% 30.15 in 10.0 mi South 9.2 mph - N/A   Clear
3:55 AM 55.9 °F 19.2 °F 24% 30.15 in 10.0 mi South 10.4 mph - N/A   Clear
4:15 AM 56.1 °F 19.0 °F 24% 30.16 in 10.0 mi South 9.2 mph - N/A   Clear
4:35 AM 54.7 °F 20.5 °F 26% 30.16 in 10.0 mi SSE 9.2 mph - N/A   Clear
4:55 AM 53.4 °F 21.6 °F 29% 30.17 in 10.0 mi SSE 6.9 mph - N/A   Clear
5:15 AM 52.7 °F 21.9 °F 30% 30.17 in 10.0 mi SSE 9.2 mph - N/A   Clear
5:35 AM 52.9 °F 21.2 °F 29% 30.17 in 10.0 mi South 6.9 mph - N/A   Clear
5:55 AM 52.3 °F 21.7 °F 30% 30.17 in 10.0 mi South 5.8 mph - N/A   Clear
6:15 AM 51.4 °F 22.1 °F 32% 30.17 in 10.0 mi South 5.8 mph - N/A   Clear
6:35 AM 54.7 °F 20.5 °F 26% 30.17 in 10.0 mi South 8.1 mph - N/A   Clear
6:55 AM 56.7 °F 20.8 °F 25% 30.17 in 10.0 mi South 5.8 mph - N/A   Clear
7:15 AM 58.1 °F 21.7 °F 25% 30.17 in 10.0 mi South 6.9 mph - N/A   Clear
7:35 AM 60.3 °F 22.1 °F 23% 30.17 in 10.0 mi SSE 8.1 mph - N/A   Clear
7:55 AM 62.2 °F 22.5 °F 22% 30.17 in 10.0 mi South 8.1 mph - N/A   Clear
8:15 AM 64.4 °F 22.5 °F 20% 30.18 in 10.0 mi SSE 10.4 mph - N/A   Clear
8:35 AM 65.8 °F 23.7 °F 20% 30.18 in 10.0 mi SSE 11.5 mph - N/A   Clear
8:55 AM 67.3 °F 26.4 °F 22% 30.19 in 10.0 mi SSE 13.8 mph - N/A   Clear
9:15 AM 68.7 °F 27.1 °F 21% 30.18 in 10.0 mi SSE 13.8 mph - N/A   Clear
9:35 AM 69.4 °F 27.3 °F 21% 30.17 in 10.0 mi SSE 13.8 mph - N/A   Clear
9:55 AM 70.7 °F 29.5 °F 22% 30.17 in 10.0 mi SE 12.7 mph - N/A   Clear
10:15 AM 72.9 °F 29.8 °F 20% 30.16 in 10.0 mi SE 13.8 mph - N/A   Clear
10:35 AM 74.7 °F 29.3 °F 19% 30.15 in 10.0 mi SE 13.8 mph - N/A   Clear
10:55 AM 76.1 °F 26.2 °F 16% 30.15 in 10.0 mi SE 13.8 mph - N/A   Clear
11:15 AM 77.7 °F 25.3 °F 14% 30.14 in 10.0 mi SE 13.8 mph - N/A   Clear
11:35 AM 78.8 °F 23.7 °F 13% 30.13 in 10.0 mi SE 10.4 mph - N/A   Clear
11:55 AM 80.4 °F 24.8 °F 13% 30.12 in 10.0 mi SSE 10.4 mph 16.1 mph N/A   Clear
12:15 PM 81.7 °F 24.6 °F 12% 30.11 in 10.0 mi SE 15.0 mph 20.7 mph N/A   Clear
12:35 PM 82.6 °F 21.9 °F 11% 30.10 in 10.0 mi South 8.1 mph 18.4 mph N/A   Clear
12:55 PM 83.7 °F 23.4 °F 11% 30.09 in 10.0 mi SSE 9.2 mph 20.7 mph N/A   Clear
1:15 PM 84.0 °F 23.7 °F 11% 30.08 in 10.0 mi SSE 15.0 mph 20.7 mph N/A   Clear
1:35 PM 84.2 °F 24.4 °F 11% 30.07 in 10.0 mi SE 13.8 mph 23.0 mph N/A   Clear
1:55 PM 85.5 °F 25.0 °F 11% 30.05 in 10.0 mi South 13.8 mph 25.3 mph N/A   Clear
2:15 PM 85.3 °F 25.0 °F 11% 30.04 in 10.0 mi SE 17.3 mph 24.2 mph N/A   Clear
2:35 PM 86.4 °F 24.6 °F 11% 30.03 in 10.0 mi SE 15.0 mph 24.2 mph N/A   Clear
2:55 PM 86.2 °F 24.6 °F 11% 30.02 in 10.0 mi SE 17.3 mph 23.0 mph N/A   Clear
3:15 PM 86.2 °F 25.0 °F 11% 30.01 in 10.0 mi SE 17.3 mph 23.0 mph N/A   Clear
3:35 PM 86.9 °F 24.3 °F 10% 30.00 in 10.0 mi SE 15.0 mph 21.9 mph N/A   Clear
3:55 PM 87.4 °F 24.4 °F 10% 29.99 in 10.0 mi SE 16.1 mph 21.9 mph N/A   Clear
4:15 PM 87.8 °F 25.0 °F 10% 29.98 in 10.0 mi SSE 11.5 mph 17.3 mph N/A   Clear
4:35 PM 86.5 °F 25.3 °F 11% 29.97 in 10.0 mi SE 16.1 mph 23.0 mph N/A   Clear
4:55 PM 85.6 °F 25.0 °F 11% 29.97 in 10.0 mi SE 16.1 mph 20.7 mph N/A   Clear
5:15 PM 84.9 °F 24.3 °F 11% 29.96 in 10.0 mi SE 16.1 mph 21.9 mph N/A   Clear
5:35 PM 82.8 °F 24.3 °F 12% 29.96 in 10.0 mi SSE 16.1 mph 21.9 mph N/A   Clear
5:55 PM 85.5 °F 24.3 °F 11% 29.96 in 10.0 mi South 16.1 mph 26.5 mph N/A   Clear
6:15 PM 83.3 °F 23.2 °F 11% 29.95 in 10.0 mi SW 9.2 mph 28.8 mph N/A   Clear
6:35 PM 82.6 °F 23.9 °F 12% 29.96 in 10.0 mi SW 15.0 mph 24.2 mph N/A   Clear
6:55 PM 82.0 °F 23.9 °F 12% 29.96 in 10.0 mi SSW 8.1 mph - N/A   Clear
7:15 PM 81.1 °F 25.0 °F 13% 29.97 in 10.0 mi NW 11.5 mph 16.1 mph N/A   Clear
7:35 PM 78.1 °F 28.8 °F 16% 29.97 in 10.0 mi WNW 21.9 mph 27.6 mph N/A   Scattered Clouds
7:55 PM 77.0 °F 28.9 °F 17% 29.97 in 10.0 mi WNW 21.9 mph 29.9 mph N/A   Scattered Clouds
8:15 PM 75.7 °F 31.3 °F 20% 29.98 in 10.0 mi WNW 25.3 mph 33.4 mph N/A   Clear
8:35 PM 74.3 °F 32.0 °F 21% 29.99 in 10.0 mi WNW 26.5 mph 32.2 mph N/A   Clear
8:55 PM 74.3 °F 32.0 °F 21% 30.00 in 10.0 mi NW 16.1 mph 28.8 mph N/A   Clear
9:15 PM 73.0 °F 33.8 °F 24% 30.02 in 10.0 mi North 17.3 mph 26.5 mph N/A   Clear
9:35 PM 72.0 °F 34.7 °F 26% 30.03 in 10.0 mi North 8.1 mph 20.7 mph N/A   Clear
9:55 PM 72.5 °F 33.3 °F 24% 30.04 in 10.0 mi NNW 12.7 mph - N/A   Clear
10:15 PM 72.9 °F 32.9 °F 23% 30.04 in 10.0 mi North 11.5 mph 18.4 mph N/A   Clear
10:35 PM 70.0 °F 35.1 °F 28% 30.04 in 10.0 mi North 8.1 mph - N/A   Clear
10:55 PM 68.5 °F 35.4 °F 30% 30.04 in 10.0 mi North 3.5 mph - N/A   Clear
11:15 PM 68.0 °F 35.6 °F 30% 30.05 in 10.0 mi Calm Calm - N/A   Clear
11:35 PM 68.2 °F 35.6 °F 30% 30.05 in 10.0 mi Calm Calm - N/A   Clear
11:55 PM 67.5 °F 35.8 °F 31% 30.05 in 10.0 mi NE 4.6 mph - N/A   Clear